רגע לפני שאתם עוזבים...
יש לנו ב
הצעה מיוחד עבורכם!
מספר שירותים שכדאי שתכירו
| לוחית | שעת חיפוש | ||||
| 2594167 | פולקסווגן גרמניה | TIGUAN | 2009 | 28/08/2026 | 17:38:12 |
| 18125603 | סקודה צ'כיה | KODIAQ FL | 2022 | 28/08/2026 | 17:38:09 |
| 85334201 | ימהה יפן | - | 2019 | 28/08/2026 | 17:38:08 |
| 5862463 | דימלרקריזלר-גר | - | 2008 | 28/08/2026 | 17:38:07 |
| 3309234 | יונדאי קוריאה הדרומית | I35 | 2015 | 28/08/2026 | 17:38:07 |
| 3813468 | סאן יאנג טיואן | - | 2009 | 28/08/2026 | 17:38:04 |
| 9625912 | סוזוקי הונגריה | SX4 | 2013 | 28/08/2026 | 17:38:02 |
| 1163873 | יונדאי צ'כיה | I30 | 2010 | 28/08/2026 | 17:38:00 |
| 3487670 | טויוטה יפן | COROLLA | 2010 | 28/08/2026 | 17:38:00 |
| 3844508 | סובארו יפן | - | 1996 | 28/08/2026 | 17:37:57 |
| 3230231 | יונדאי טורקיה | I10 | 2014 | 28/08/2026 | 17:37:55 |
| 24341901 | הונדה איטליה | - | 2018 | 28/08/2026 | 17:37:54 |
| 7718076 | סיאט ספרד | IBIZA | 2012 | 28/08/2026 | 17:37:52 |
| 23114001 | מרוטי סוזוקי הודו | BALENO | 2018 | 28/08/2026 | 17:37:51 |
| 6428280 | פיג'ו צרפת | 208 | 2017 | 28/08/2026 | 17:37:50 |
| 1808475 | סובארו יפן | OUTBACK | 2012 | 28/08/2026 | 17:37:48 |
| 8536808 | מרוטי סוזוקי הודו | BALENO | 2016 | 28/08/2026 | 17:37:48 |
| 5355553 | סיאט ספרד | IBIZA | 2014 | 28/08/2026 | 17:37:46 |
| 74270403 | טויוטה טורקיה | TOYOTA C-HR | 2024 | 28/08/2026 | 17:37:42 |
| 84918001 | יונדאי קוריאה הדרומית | IONIQ HYBRID | 2020 | 28/08/2026 | 17:37:42 |
| 44012003 | קיה קוריאה הדרומית | SELTOS | 2023 | 28/08/2026 | 17:37:42 |
| 21861001 | רנו טורקיה | GRAND COUPE | 2018 | 28/08/2026 | 17:37:41 |
| 1543385 | קיה סלובקיה | SPORTAGE | 2016 | 28/08/2026 | 17:37:38 |
| 63529501 | מרצדס בנץ גרמנ | - | 2019 | 28/08/2026 | 17:37:34 |
| 18126603 | אאודי הונגריה | Q3 SPORTBACK | 2022 | 28/08/2026 | 17:37:31 |
| 9624839 | מיצובישי תאילנד | SPACE STAR | 2017 | 28/08/2026 | 17:37:18 |
| 83590903 | יונדאי קוריאה הדרומית | VENUE | 2024 | 28/08/2026 | 17:37:17 |
| 9912711 | קיה קוריאה הדרומית | SORENTO | 2014 | 28/08/2026 | 17:37:17 |
| 1974367 | פולקסווגן גרמניה | GOLF | 2009 | 28/08/2026 | 17:37:02 |
| 1974367 | פולקסווגן גרמניה | GOLF | 2009 | 28/08/2026 | 17:37:01 |
| 71085702 | טויוטה טורקיה | COROLLA HSD SDN | 2021 | 28/08/2026 | 17:36:55 |
| 54122001 | מרצדס ספרד | X CLASS | 2019 | 28/08/2026 | 17:36:52 |
| 54122001 | מרצדס ספרד | X CLASS | 2019 | 28/08/2026 | 17:36:52 |
| 54122001 | מרצדס ספרד | X CLASS | 2019 | 28/08/2026 | 17:36:52 |
| 54122001 | מרצדס ספרד | X CLASS | 2019 | 28/08/2026 | 17:36:52 |
| 8676939 | יונדאי טורקיה | I10 | 2016 | 28/08/2026 | 17:36:48 |
| 1585467 | פיאט איטליה | BRAVO 1.4 | 2010 | 28/08/2026 | 17:36:45 |
| 9912711 | קיה קוריאה הדרומית | SORENTO | 2014 | 28/08/2026 | 17:36:43 |
| 41589804 | אורה סין | ORA 3 | 2025 | 28/08/2026 | 17:36:38 |
| 19563404 | צ'רי סין | ARRIZO 8 PHEV | 2025 | 28/08/2026 | 17:36:37 |
| 34315801 | מזדה יפן | CX-5 | 2019 | 28/08/2026 | 17:36:37 |
| 2336566 | יונדאי קוריאה הדרומית | I30 | 2008 | 28/08/2026 | 17:36:36 |
| 5678164 | פיג'ו סלובקיה | 208 | 2014 | 28/08/2026 | 17:36:26 |
| 9912711 | קיה קוריאה הדרומית | SORENTO | 2014 | 28/08/2026 | 17:36:21 |
| 9912711 | קיה קוריאה הדרומית | SORENTO | 2014 | 28/08/2026 | 17:36:20 |
| 2644638 | סקודה צ'כיה | RAPID | 2016 | 28/08/2026 | 17:36:19 |
| 92932601 | פורד ארהב" | - | 2021 | 28/08/2026 | 17:35:59 |
| 57072303 | אורה סין | ORA FUNKY CAT | 2024 | 28/08/2026 | 17:35:56 |
| 78268702 | מיצובישי תאילנד | SPACE STAR | 2022 | 28/08/2026 | 17:35:52 |
| 9624839 | מיצובישי תאילנד | SPACE STAR | 2017 | 28/08/2026 | 17:35:50 |
| 9912711 | קיה קוריאה הדרומית | SORENTO | 2014 | 28/08/2026 | 17:35:41 |
| 92017001 | מרצדס גרמניה | E350D | 2017 | 28/08/2026 | 17:35:40 |
| 5920953 | סקודה צ'כיה | ROOMSTER | 2014 | 28/08/2026 | 17:35:35 |
| 36522104 | יונדאי קוריאה הדרומית | ELANTRA HEV | 2025 | 28/08/2026 | 17:35:27 |
| 37533003 | פורתינג סין | FRIDAY | 2025 | 28/08/2026 | 17:35:27 |
| 45070601 | לקסוס יפן | LEXUS NX300 | 2018 | 28/08/2026 | 17:35:27 |
| 9834414 | שברולט ארהב" | - | 2005 | 28/08/2026 | 17:35:25 |
| 92277901 | ב מ וו גרמניה | - | 2020 | 28/08/2026 | 17:35:23 |
| 55695702 | יונדאי הודו | ACCENT | 2021 | 28/08/2026 | 17:35:22 |
| 47916802 | פיאג'ו איטליה | - | 2022 | 28/08/2026 | 17:35:22 |
| 4192384 | דאצ'יה רומניה | SANDERO | 2017 | 28/08/2026 | 17:35:21 |
| 4261010 | פולקסווגן גרמנ | TRANSPORTER | 2001 | 28/08/2026 | 17:35:19 |
| 9982379 | מרצדס בנץ גרמנ | - | 2017 | 28/08/2026 | 17:35:19 |
| 92277901 | ב מ וו גרמניה | - | 2020 | 28/08/2026 | 17:35:19 |
| 84031403 | מיצובישי יפן | OUTLANDER | 2025 | 28/08/2026 | 17:35:18 |
| 3880514 | טויוטה יפן | COROLLA | 2006 | 28/08/2026 | 17:35:17 |
| 9834414 | שברולט ארהב" | - | 2005 | 28/08/2026 | 17:35:16 |
| 83590903 | יונדאי קוריאה הדרומית | VENUE | 2024 | 28/08/2026 | 17:35:15 |
| 48731804 | צ'רי סין | TIGGO 4 HYBRID | 2025 | 28/08/2026 | 17:35:00 |
| 4628426 | טסלה גרמניה | MODEL Y | 2025 | 28/08/2026 | 17:34:53 |
| 47916802 | פיאג'ו איטליה | - | 2022 | 28/08/2026 | 17:34:53 |
| 9010870 | ניסאן יפן | - | 2005 | 28/08/2026 | 17:34:52 |
| 82843603 | בי ווי די סין | BYD DOLPHIN | 2024 | 28/08/2026 | 17:34:34 |
| 3880514 | טויוטה יפן | COROLLA | 2006 | 28/08/2026 | 17:34:31 |
| 51123804 | ג'אקו סין | JAECOO7 PHEV | 2026 | 28/08/2026 | 17:34:29 |
| 33694901 | מזדה יפן | CX-5 | 2018 | 28/08/2026 | 17:34:26 |
| 88724002 | יגואר אוסטריה | E-PACE | 2022 | 28/08/2026 | 17:34:24 |
| 9834414 | שברולט ארהב" | - | 2005 | 28/08/2026 | 17:34:23 |
| 3747179 | ניסאן הודו | MICRA | 2012 | 28/08/2026 | 17:34:19 |
| 3268311 | מרצדס בנץ גרמנ | - | 2013 | 28/08/2026 | 17:34:19 |
| 8014366 | טויוטה יפן | LAND CRUISER | 2008 | 28/08/2026 | 17:34:17 |
| 28466704 | פולקסווגן פולין | CADDY | 2026 | 28/08/2026 | 17:34:14 |
| 26395401 | קרייזלר ארהב" | WRANGLER | 2017 | 28/08/2026 | 17:34:09 |
| 1545661 | מזדה יפן | MAZDA 6 | 2006 | 28/08/2026 | 17:34:07 |
| 6464071 | פורד תורכיה | - | 2011 | 28/08/2026 | 17:34:07 |
| 8153253 | אופל גרמניה | INSIGNIA | 2014 | 28/08/2026 | 17:34:06 |
| 1146637 | טויוטה תאילנד | HILUX | 2016 | 28/08/2026 | 17:34:03 |
| 37533003 | פורתינג סין | FRIDAY | 2025 | 28/08/2026 | 17:34:03 |
| 48323404 | גילי סין | EX5 | 2025 | 28/08/2026 | 17:34:03 |
| 48723404 | צ'רי סין | TIGGO8PRO PHEV | 2025 | 28/08/2026 | 17:34:01 |
| 8443813 | יונדאי קוריאה הדרומית | VELOSTER | 2012 | 28/08/2026 | 17:33:59 |
| 9982379 | מרצדס בנץ גרמנ | - | 2017 | 28/08/2026 | 17:33:58 |
| 92277901 | ב מ וו גרמניה | - | 2020 | 28/08/2026 | 17:33:55 |
| 80764903 | מאן פולין | - | 2024 | 28/08/2026 | 17:33:55 |
| 64557802 | ב מ וו ארהב" | X4 XDRIVE20I | 2021 | 28/08/2026 | 17:33:54 |
| 74232604 | צ'רי סין | TIGGO 4 HYBRID | 2026 | 28/08/2026 | 17:33:50 |
| 718903 | וולבו שבדיה | - | 1966 | 28/08/2026 | 17:33:49 |
| 8873701 | דאף-הולנד | - | 2009 | 28/08/2026 | 17:33:49 |
| 16143403 | יונדאי טורקיה | I10 | 2022 | 28/08/2026 | 17:33:45 |
| 8368379 | טויוטה תאילנד | HILUX | 2012 | 28/08/2026 | 17:33:44 |
| 71201201 | קיה סלובקיה | XCEED | 2020 | 28/08/2026 | 17:33:40 |
| 23616503 | סקודה צ'כיה | KODIAQ FL | 2022 | 28/08/2026 | 17:33:39 |
| 4723211 | יונדאי קוריאה הדרומית | I35 | 2013 | 28/08/2026 | 17:33:35 |
| 1124311 | יונדאי טורקיה | I20 | 2013 | 28/08/2026 | 17:33:34 |
| 4192384 | דאצ'יה רומניה | SANDERO | 2017 | 28/08/2026 | 17:33:31 |
| 5090431 | הונדה יפן | JAZZ HYBRID | 2014 | 28/08/2026 | 17:33:30 |
| 84944202 | מזדה תאילנד | MAZDA 2 | 2022 | 28/08/2026 | 17:33:29 |
| 9030737 | ניסאן בריטניה | JUKE | 2016 | 28/08/2026 | 17:33:28 |
| 5360331 | הונדה יפן | INSIGHT HYBRID | 2014 | 28/08/2026 | 17:33:26 |
| 27302302 | יונדאי טורקיה | I10 | 2020 | 28/08/2026 | 17:33:24 |
| 48723404 | צ'רי סין | TIGGO8PRO PHEV | 2025 | 28/08/2026 | 17:33:22 |
| 1402354 | דימלרקריזלר-גר | - | 2014 | 28/08/2026 | 17:33:21 |
| 7144468 | פורד ארהב" | - | 2010 | 28/08/2026 | 17:33:20 |
| 9688353 | סאן יאנג טיואן | - | 2013 | 28/08/2026 | 17:33:19 |
| 7752312 | סיטרואן ספרד | C-ELYSEE | 2013 | 28/08/2026 | 17:33:17 |
| 67111602 | שברולט ארהב" | CORVETTE STINGR | 2022 | 28/08/2026 | 17:33:17 |
| 718903 | וולבו שבדיה | - | 1966 | 28/08/2026 | 17:33:17 |
| 92932601 | פורד ארהב" | - | 2021 | 28/08/2026 | 17:33:15 |
| 60120801 | מזדה יפן | CX-5 | 2019 | 28/08/2026 | 17:33:14 |
| 19990403 | יונדאי קוריאה הדרומית | ELANTRA HEV | 2023 | 28/08/2026 | 17:33:09 |
| 9918211 | קיה קוריאה הדרומית | PICANTO | 2014 | 28/08/2026 | 17:33:04 |
| 1151632 | יונדאי טורקיה | I10 | 2014 | 28/08/2026 | 17:33:02 |
| 33109103 | צ'רי סין | TIGGO 8 PRO | 2023 | 28/08/2026 | 17:32:59 |
| 3375233 | דאצ'יה רומניה | SANDERO | 2016 | 28/08/2026 | 17:32:59 |
| 48323404 | גילי סין | EX5 | 2025 | 28/08/2026 | 17:32:58 |
| 72142801 | שברולט קוריאה הדרומית | SPARK | 2020 | 28/08/2026 | 17:32:56 |
| 2543030 | מזדה יפן | MAZDA 3 | 2016 | 28/08/2026 | 17:32:54 |
| 2403774 | סאן יאנג טיואן | - | 2011 | 28/08/2026 | 17:32:52 |
| 3213913 | מיצובישי יפן | PAJERO | 2006 | 28/08/2026 | 17:32:49 |
| 52495003 | גולדן דרגון סי | - | 2024 | 28/08/2026 | 17:32:47 |
| 2501367 | פולקסווגן גרמניה | GOLF PLUS | 2009 | 28/08/2026 | 17:32:45 |
| 17663003 | קיה סלובקיה | SPORTAGE | 2022 | 28/08/2026 | 17:32:44 |
| 6961033 | דאף-הולנד | - | 2016 | 28/08/2026 | 17:32:44 |
| 43793801 | סיטרואן ספרד | BERLINGO | 2018 | 28/08/2026 | 17:32:40 |
| 8885879 | טויוטה יפן | COROLLA | 2013 | 28/08/2026 | 17:32:39 |
| 2155667 | אאודי סלובקיה | Q7 | 2009 | 28/08/2026 | 17:32:39 |
| 1320729 | ניסאן יפן | אלמרה XLS 4 דלתות | 1997 | 28/08/2026 | 17:32:37 |
| 4380055 | ב מ וו גרמניה | 750LI | 2017 | 28/08/2026 | 17:32:34 |
| 2413962 | פולקסווגן מקסיקה | JETTA | 2007 | 28/08/2026 | 17:32:30 |
| 3342959 | יונדאי קוריאה הדרומית | GETZ | 2005 | 28/08/2026 | 17:32:18 |
| 718903 | וולבו שבדיה | - | 1966 | 28/08/2026 | 17:32:17 |
| 75929001 | טויוטה טורקיה | COROLLA HSD SDN | 2019 | 28/08/2026 | 17:32:17 |
| 8177463 | פיגו איטליה | - | 2008 | 28/08/2026 | 17:32:14 |
| 33250003 | צ'רי סין | TIGGO 8 PRO | 2023 | 28/08/2026 | 17:32:14 |
| 92819501 | מרצדס גרמניה | C200 D | 2016 | 28/08/2026 | 17:32:13 |
| 60960103 | פולקסווגן | AMAROK | 2024 | 28/08/2026 | 17:32:04 |
| 67111602 | שברולט ארהב" | CORVETTE STINGR | 2022 | 28/08/2026 | 17:32:02 |
| 39676903 | מזדה תאילנד | MAZDA 2 | 2023 | 28/08/2026 | 17:31:58 |
| 8599122 | פולקסווגן גרמנ | - | 2011 | 28/08/2026 | 17:31:58 |
| 40262201 | מרצדס בנץ גרמנ | - | 2018 | 28/08/2026 | 17:31:56 |
| 8833075 | ב מ וו גרמניה | 320I | 2013 | 28/08/2026 | 17:31:56 |
| 6248469 | יונדאי טורקיה | ACCENT | 2009 | 28/08/2026 | 17:31:54 |
| 7049285 | קיה קוריאה הדרומית | PICANTO | 2017 | 28/08/2026 | 17:31:53 |
| 29432802 | סיאט ספרד | ARONA | 2020 | 28/08/2026 | 17:31:52 |
| 23377002 | בי ווי די | - | 2023 | 28/08/2026 | 17:31:48 |
| 3800034 | מרצדס גרמניה | S500 MAYBACH | 2016 | 28/08/2026 | 17:31:45 |
| 8830779 | טויוטה יפן | COROLLA | 2013 | 28/08/2026 | 17:31:45 |
| 7762813 | דאף אנגליה | - | 2012 | 28/08/2026 | 17:31:43 |
| 9388171 | מרצדס בנץ גרמנ | - | 2009 | 28/08/2026 | 17:31:43 |
| 2730770 | טויוטה יפן | COROLLA | 2009 | 28/08/2026 | 17:31:42 |
| 1815863 | טויוטה יפן | COROLLA | 2008 | 28/08/2026 | 17:31:36 |
| 1008087 | הונדה בריטניה | CR-V | 2017 | 28/08/2026 | 17:31:34 |
| 44330701 | טויוטה צרפת | YARIS HYBRID | 2018 | 28/08/2026 | 17:31:34 |
| 1365837 | טויוטה טורקיה | VERSO | 2016 | 28/08/2026 | 17:31:30 |
| 1120350 | טויוטה טורקיה | COROLLA | 2003 | 28/08/2026 | 17:31:28 |
| 2279030 | מזדה יפן | CX-5 | 2016 | 28/08/2026 | 17:31:24 |
| 90898901 | רנו טורקיה | FLUENCE | 2015 | 28/08/2026 | 17:31:23 |
| 1541568 | פורשה גרמניה | CAYENNE | 2009 | 28/08/2026 | 17:31:18 |
| 8858501 | וולבו שבדיה | - | 2008 | 28/08/2026 | 17:31:16 |
| 3742462 | מזדה יפן | MAZDA 5 | 2007 | 28/08/2026 | 17:31:15 |
| 6381975 | פורד גרמניה | FOCUS | 2012 | 28/08/2026 | 17:31:14 |
| 28100103 | מזדה תאילנד | MAZDA 2 | 2022 | 28/08/2026 | 17:31:13 |
| 81165401 | טויוטה יפן | LAND CRUISER | 2019 | 28/08/2026 | 17:31:10 |
| 4629269 | ניסאן מקסיקו | TIIDA | 2009 | 28/08/2026 | 17:31:09 |
| 40171901 | פיאט איטליה | - | 2018 | 28/08/2026 | 17:31:08 |
| 8529371 | טויוטה יפן | COROLLA | 2010 | 28/08/2026 | 17:31:03 |
| 14203103 | טויוטה יפן | LAND CRUISER | 2022 | 28/08/2026 | 17:31:00 |
| 92254101 | שברולט ארהב" | - | 2020 | 28/08/2026 | 17:31:00 |
| 79622202 | ב מ וו גרמניה | 420I | 2022 | 28/08/2026 | 17:30:58 |
| 11874402 | דאצ'יה רומניה | LODGY | 2020 | 28/08/2026 | 17:30:58 |
| 7701169 | סקניה-שוודיה | - | 2015 | 28/08/2026 | 17:30:53 |
| 4619775 | מזדה יפן | MAZDA 3 | 2012 | 28/08/2026 | 17:30:48 |
| 6369336 | מזדה יפן | MPV | 2002 | 28/08/2026 | 17:30:44 |
| 2917258 | סקניה-הולנד | - | 2017 | 28/08/2026 | 17:30:44 |
| 39725301 | סקודה צ'כיה | OCTAVIA | 2018 | 28/08/2026 | 17:30:43 |
| 4458875 | פורד גרמניה | FOCUS | 2012 | 28/08/2026 | 17:30:42 |
| 9325108 | הונדה ארהב" | - | 1995 | 28/08/2026 | 17:30:40 |
| 49210902 | קימקו טאיוון | - | 2025 | 28/08/2026 | 17:30:38 |
| 7330970 | הונדה טורקיה | CIVIC | 2011 | 28/08/2026 | 17:30:34 |
| 61426704 | קיה קוריאה הדרומית | CARNIVAL | 2026 | 28/08/2026 | 17:30:33 |
| 24099701 | הונדה טורקיה | CIVIC | 2018 | 28/08/2026 | 17:30:33 |
| 4281216 | פיג'ו צרפת | 4.1 REVEROF 502 5 דל | 1998 | 28/08/2026 | 17:30:32 |
| 71845603 | ג'אקו סין | JAECOO7 | 2024 | 28/08/2026 | 17:30:28 |
| 4549511 | יונדאי קוריאה הדרומית | I35 | 2013 | 28/08/2026 | 17:30:23 |
| 68517703 | הייגר סין | - | 2024 | 28/08/2026 | 17:30:23 |
| 61811601 | סוזוקי הונגריה | VITARA | 2019 | 28/08/2026 | 17:30:18 |
| 36831903 | איסוזו תאילנד | D-MAX | 2023 | 28/08/2026 | 17:30:18 |
| 9522362 | פולקסווגן גרמניה | GOLF | 2008 | 28/08/2026 | 17:30:17 |
| 50896603 | רנו קוריאה הדרומית | ARKANA | 2023 | 28/08/2026 | 17:30:14 |
| 29926601 | ב מ וו גרמניה | 530E IPERFORMAN | 2018 | 28/08/2026 | 17:30:13 |